Regional Weather Roundup
Issued by NWS Charleston, SC

Current Version | Previous Version | Graphics & Text | Print | Product List | Glossary On
Versions: 1 2 3 4 5 6 7 8 9 10 11 12 13 14 15 16 17 18 19 20 21 22 23 24 25 26 27 28 29 30 31 32 33 34 35 36 37 38 39 40 41 42 43 44 45 46 47 48 49 50
000
ASUS42 KCHS 280211
RWRCHS

REGIONAL WEATHER ROUNDUP
NATIONAL WEATHER SERVICE CHARLESTON SC
900 PM EST FRI FEB 27 2015

NOTE: "FAIR" INDICATES FEW OR NO CLOUDS BELOW 12,000 FEET WITH NO
SIGNIFICANT WEATHER AND/OR OBSTRUCTIONS TO VISIBILITY.

NOT ALL STATIONS ARE QUALITY CONTROLLED BY THE NATIONAL
WEATHER SERVICE. USE DATA WITH CAUTION...ESPECIALLY
DEWPOINT OBSERVATIONS.

SCZ027-030-031-034>040-042>050-280300-
...SOUTHEAST SOUTH CAROLINA...

CITY           SKY/WX    TMP DP  RH WIND       PRES   REMARKS
N CHARLESTON   PTCLDY    41  35  79 NE5       30.43R
WATERFRONT PRK   N/A     45 N/A N/A NE8         N/A
MOUNT PLEASANT LGT RAIN  37  37 100 CALM      30.43R
PINOPOLIS        N/A     45  37  76 CALM      30.35R
MONCKS CORNER  FAIR      41  37  87 CALM      30.43R
SUMMERVILLE    FAIR      39  37  93 CALM      30.44R
BEAUFORT MCAS  MOCLDY    44  37  76 E5        30.43R
BEAUFORT ARPT  FAIR      45  39  81 CALM      30.42R
HILTON HEAD IS MOCLDY    46  37  71 NE7       30.43R
WALTERBORO     PTCLDY    43  37  81 E5        30.44R
ALLENDALE      FAIR      43  37  81 CALM      30.41R

...SOUTHERN MIDLANDS AND PEE DEE...

CITY           SKY/WX    TMP DP  RH WIND       PRES   REMARKS
GEORGETOWN     NOT AVBL
KINGSTREE      NOT AVBL
ORANGEBURG     PTCLDY    41  35  79 CALM      30.42R
BARNWELL       FAIR      43  37  81 CALM      30.42R
AIKEN          FAIR      41  36  81 E3        30.43R
MANNING        FAIR      37  37 100 E3        30.44R
COLUMBIA       PTCLDY    39  34  82 CALM      30.42R
SUMTER         PTCLDY    37  33  85 NE8       30.42R WCI  31
FLORENCE       CLEAR     44  31  60 NE12      30.45R
MYRTLE BEACH   CLEAR     43  36  75 E6        30.47R
N MYRTLE BEACH PTCLDY    37  35  92 NE3       30.45R

$$

GAZ063-065-086>088-099>101-113>116-118-119-134>141-150-280300-
...SOUTHEAST GEORGIA...

CITY           SKY/WX    TMP DP  RH WIND       PRES   REMARKS
SAVANNAH ARPT  MOCLDY    44  35  70 E6        30.42R
HUNTER AAF     MOCLDY    44  36  73 NE3       30.39R
FORT STEWART   MOCLDY    43  37  80 NE5       30.39R
STATESBORO     MOCLDY    41  41 100 E3        30.41R
SYLVANIA       PTCLDY    45  39  81 SE5       30.42R
CLAXTON        FAIR      41  41 100 E3        30.41R

...CSRA...CENTRAL AND FAR SOUTHEAST GEORGIA...

CITY           SKY/WX    TMP DP  RH WIND       PRES   REMARKS
THOMSON        CLEAR     42  41  98 CALM      30.43S
AUGUSTA-BUSH   CLEAR     41  35  79 CALM      30.41R
AUGUSTA-DANIEL CLEAR     50  34  54 E6        30.40R
SWAINSBORO     FAIR      46  36  66 E5        30.40R
VIDALIA        MOCLDY    45  39  81 CALM      30.39R
EASTMAN        FAIR      43  43 100 E3        30.40S
HAZLEHURST     FAIR      48  41  76 E5        30.37R
ALMA           CLOUDY    45  38  76 E5        30.38R
WAYCROSS       CLOUDY    48  40  73 E6        30.38R
JESUP          FAIR      45  41  87 E5        30.39R
BAXLEY         FAIR      45  41  87 E3        30.38R
BRUNSWICK      CLOUDY    46  37  71 NE5       30.39S
SAINT SIMONS   CLOUDY    48  38  68 NE10      30.38R

$$

SCZ027-028-034-036>038-045-046-048>050-GAZ119-141-280300-
...LAKE AND SUPPLEMENTAL COASTAL OBSERVATIONS...

STATION/POSITION TIME  TEMP    WIND        PRES    WAVE   SWELL
                       AIR SEA DIR/SP/G            HT/PER HT/PER/DIR
                 (UTC) (F)     (DEG/KT/KT) (MB)    (FT/S) (FT/S/D)
UPR LAKE MARION  NOT AVBL
WINYAH BAY       0045   41     360/  2     1029.0
LAKE MURRAY      0100   44        CALM     1028.4R
ACE BASIN NERRS  NOT AVBL
FORT PULASKI     0106   47 49   40/  8/ 12 1029.8R
SAPELO ISLAND    0100   46      40/  7     1028.0S

$$

ANZ835-935-AMZ111-154-330-350-352-354-370-450-454-472-280300-
...C-MAN AND BUOY OBSERVATIONS...

STATION/POSITION TIME  TEMP    WIND        PRES    WAVE   SWELL
                       AIR SEA DIR/SP/G            HT/PER HT/PER/DIR
                 (UTC) (F)     (DEG/KT/KT) (MB)    (FT/S) (FT/S/D)
BUOY 41004       0150   53 65   40/ 17/ 21 1029.2R   5/ 6   2/ 8
BUOY 41008       0150   51 51   40/ 19/ 21 1028.4R   5/ 6   2/100/11
FOLLY BEACH CMAN 0200   47      60/ 12/ 14 1030.7R
CAPERS NEARSHORE NOT AVBL
FRIPP NEARSHORE  0100   48      60/ 16/ 17 1028.4R


STATION/POSITION TIME  TEMP    WIND        PRES    WAVE   SWELL
                       AIR SEA DIR/SP/G            HT/PER HT/PER/DIR
                 (UTC) (F)     (DEG/KT/KT) (MB)    (FT/S) (FT/S/D)
5E ST. MARYS GA  0051      53                N/A     6/ 6   2/100/11
FRYING PAN BUOY  0150   50 62   50/ 17/ 21 1030.9R   4/ 6   3/120/10
BUOY 41025       NOT AVBL
CAPE LOOKOUT NC  0100   43      30/ 15/ 18 1031.1R
BUOY 41002       0150   64 70   20/ 17/ 21 1026.7R  11/10   8/ 20/10
BUOY 41010       0120   67 72   70/ 21/ 23 1023.2R
ST AUGUSTINE FL  0200   54     360/ 24/ 27 1026.7R


$$


USA.gov is the U.S. government's official web portal to all federal, state and local government web resources and services.